Location: 22
(39.7117°N, 89.5929°W)
Time: 09:12:12
(UTC-05:00)

Transit 2A - Pass Details

Date: 05 August 2024
Orbit: 590 x 961 km, 66.7° (Epoch: 13 September)

Event Time Altitude Azimuth Distance (km) Brightness Sun altitude
Rises 06:33:26 0° 246° (WSW) 3,246 8.6 4.9°
Reaches altitude 10° 06:36:10 10° 260° (W) 2,387 7.9 5.4°
Maximum altitude 06:40:40 25° 314° (NW) 1,673 7.6 6.2°
Drops below altitude 10° 06:45:31 10° 8° (N) 2,588 9.1 7.1°
Sets 06:48:38 0° 21° (NNE) 3,581 10.0 7.7°
